Torna al catalogo

NOAA 16 DEB

AttivoSSO
NORAD 41228·DEBRIS·🇺🇸 United States

Lanciato Sep 21, 2000 da Vandenberg Space Force Base

Loading…

Prossimi Passaggi (prossime 24 ore)

TLE

AggiornatoSource: Space-Track

Epoca: Sep 14, 2026, 04:38 UTC

1 41228U 00055EH  26257.19346303  .00002876  00000-0  10853-2 0  9990
2 41228  98.7204 342.8188 0019513 126.3330 233.9658 14.32038186555704

Traccia NOAA 16 DEB in tempo reale con AllMySat

Download on the App Store